Вернуться в каталог

STARLINK-30109

АктивенСвязьVLEO
NORAD 56298·PAYLOAD·🇺🇸 United States

Запущен Apr 19, 2023 с Cape Canaveral Space Force Station

Loading…

Ближайшие Пролёты (ближайшие 24 часа)

TLE

СвежийSource: CelesTrak SupGP

Эпоха: Sep 14, 2026, 22:14 UTC

1 56298C 23056N   26257.92687500  .00018354  00000+0  66430-3 0  2574
2 56298  42.9996 219.9937 0001016 258.8231  77.9394 15.27592886    11

Отслеживайте STARLINK-30109 в реальном времени с AllMySat

Download on the App Store